DECAYED

FENGYUN 1C DEB, 29991 (Decayed)

Orbit data source: Space-Track

FENGYUN 1C DEB, 29991 was space debris in SSO originally from a launch on Mon, 10 May 1999 UTC launched from the Taiyaun Space Center, China (TSC). Fengyun 1C debris stems from the Chinese weather satellite Fengyun-1C, which was intentionally destroyed by a Chinese anti-satellite missile in 2007. This event dramatically increased the amount of space debris, with thousands of trackable fragments posing hazards to satellites and human spaceflight. The Fengyun 1C debris cloud has become a focal point in discussions about space sustainability and the need for international regulations to prevent the creation of new debris.

Not visible in the next 10 days
Identifier
29991, 1999-025LR
Orbit
Decayed
Country
Flag of CNCN / PRC
Related business
Manufacturer
Unknown
Mission
Decayed spacecraft
Bus & Motor
Unknown
Mass
Unknown
Launch date (UTC)
1999-05-10 (26 years ago)
Launch vehicle
Unknown
Launch site
Taiyaun Space Center, China (TSC)
Object type
Payload
Rocket body
Debris
Shape & HBR
Unknown shape, 0.1 m
Radar Cross Section
Small (<0.1 m²)

Expand to show TLE details & history
Last TLE update: 7 months ago

TLE from 7 months ago
0 FENGYUN 1C DEB
1 29991U 99025LR  25093.54030841  .10322140  38076+0  42848-1 0  9992
2 29991 102.1422 236.3041 0026926 310.6057  49.2858 15.95620427947704
Epoch: 2025-04-03T12:58Z
TLE epoch observation values (Epoch: 2025-04-03T12:58:02.646Z)
Latitude
-0.00006°
Longitude
-150.31859°
Altitude
277.915 km
Speed
7.747 km/s
True Right ascension
15h 45m 12s
True Declination
0° 00' 00"
Sunlit
Object was in full shadow at epoch
Visualization orbit readout
Latitude
Unknown
Longitude
Unknown
Altitude
Unknown
Speed
Unknown
Apparent Right ascension
Unknown
Apparent Declination
Unknown
Sunlit
N/A
Visualization observer readout
Local Sidereal Time
02:58:19
Azimuth
Unknown
Elevation
Unknown
Doppler factor
Unknown
Orbital elements
Apogee altitude
301.663 km
Perigee altitude
265.788 km
Semi-major axis
6,661.863 km
Eccentricity
0.00269
Inclination
102.1422°
RAAN
236.3041°
Arg. of periapsis
310.6057°
True anomaly
49.52019°
Mean anomaly
49.2858°
Eccentric anomaly
49.40294°
Mean motion
3.99162 °/min
Orbital period
90.19 mins
BSTAR
0.042848
Loading maneuver chart data...
Computing Atmospheric mass density...

Documentation

Showing up to 5 results
|